Flag for Canada Weather past 2 weeks in Port Coquitlam, British Columbia, Canada

Now
74 °F

Mild.


Feels Like: 77 °F
Forecast: 55 / 79 °F
Wind: 2 mph from Northwest

Location: P. Meadows Coastal Station

Current Time: Aug 22, 2014 at 3:22:46 PM

Latest Report: Aug 22, 2014 at 2:00 PM


Visibility: N/A

Pressure: 30.04 "Hg

Humidity: 54%

Dew point: 56 °F

Location of Port CoquitlamLocation

Historic Weather in Port Coquitlam — Graph

°F

Port Coquitlam temperature yesterday

Maximum temperature yesterday: 71 °F (at 3:00 PM)
Minimum temperature yesterday: 56 °F (at 1:00 AM)
Average temperature yesterday: 64 °F

Past Weeks' High & Low Weather Summary

 TemperatureHumidityPressure
High91 °F (Aug 11, 4:00 PM)100% (Aug 17, 1:00 AM)30.16 "Hg (Aug 17, 1:00 AM)
Low53 °F (Aug 22, 3:00 AM)31% (Aug 10, 5:00 PM)29.75 "Hg (Aug 19, 7:00 PM)
Average68 °F75%29.99 "Hg
* Reported Aug 7 2:00 PM — Aug 22 2:00 PM, Port Coquitlam, Weather by CustomWeather, © 2014

Note: Actual official high and low records may vary slightly from our data, if they occured in-between our weather recording intervals... More about our weather records

Advertising

Port Coquitlam weather history for previous 24 hours

 ConditionsComfort  
Time TempWeatherWind HumidityBarometerVisibility
2:00 PM
Aug 22
74 °FMild.2 mph54%30.04 "HgN/A
1:00 PM72 °FMild.3 mph59%30.05 "HgN/A
12:00 PM69 °FMild.2 mph63%30.06 "HgN/A
11:00 AM66 °FMild.3 mph71%30.06 "HgN/A
10:00 AM64 °FMild.1 mph79%30.06 "HgN/A
9:00 AM61 °FCool.1 mph83%30.06 "HgN/A
8:00 AM59 °FCool.1 mph89%30.05 "HgN/A
7:00 AM55 °FCool.2 mph95%30.04 "HgN/A
6:00 AM54 °FCool.1 mph97%30.03 "HgN/A
5:00 AM54 °FCool.No wind94%30.03 "HgN/A
4:00 AM54 °FCool.1 mph96%30.02 "HgN/A
3:00 AM53 °FCool.No wind98%30.01 "HgN/A
2:00 AM57 °FCool.No wind88%30.01 "HgN/A
1:00 AM58 °FCool.3 mph87%30.00 "HgN/A
12:00 AM60 °FCool.2 mph85%29.99 "HgN/A
11:00 PM
Aug 21
60 °FCool.3 mph89%29.99 "HgN/A
10:00 PM63 °FMild.1 mph77%29.99 "HgN/A
9:00 PM64 °FMild.1 mph73%29.98 "HgN/A
8:00 PM67 °FMild.1 mph64%29.97 "HgN/A
7:00 PM68 °FMild.3 mph60%29.96 "HgN/A
6:00 PM71 °FMild.5 mph56%29.96 "HgN/A
5:00 PM71 °FMild.6 mph56%29.96 "HgN/A
4:00 PM71 °FMild.7 mph54%29.97 "HgN/A
3:00 PM71 °FMild.7 mph58%29.98 "HgN/A
Weather by CustomWeather, © 2014

See weather overviewHow to use our weather pages